| time (UTC) | temp F | wind direction | speed MPH | gust MPH | rain 1hr in | rain 24hr in | rain mn in | humidity % | barometer mb |
| 20260901072027 | 58 | 153 | 8.0 | 14.0 | 0.00 | 0.00 | 0.00 | 80 | 1014.5 |
| 20260901071527 | 58 | 168 | 8.0 | 13.0 | 0.00 | 0.00 | 0.00 | 80 | 1014.5 |
| 20260901071025 | 58 | 146 | 8.0 | 11.0 | 0.00 | 0.00 | 0.00 | 80 | 1014.5 |
| 20260901070525 | 58 | 144 | 8.0 | 12.0 | 0.00 | 0.00 | 0.00 | 79 | 1014.4 |
| 20260901070024 | 59 | 192 | 8.0 | 12.0 | 0.00 | 0.00 | 0.00 | 79 | 1014.5 |
| 20260901065522 | 59 | 170 | 8.0 | 12.0 | 0.00 | 0.00 | 0.00 | 79 | 1014.3 |
| 20260901065021 | 59 | 167 | 6.0 | 11.0 | 0.00 | 0.00 | 0.00 | 79 | 1014.4 |
| 20260901064526 | 59 | 163 | 5.0 | 12.0 | 0.00 | 0.00 | 0.00 | 79 | 1014.4 |
| 20260901064020 | 59 | 198 | 8.0 | 15.0 | 0.00 | 0.00 | 0.00 | 79 | 1014.3 |
| 20260901063518 | 59 | 186 | 8.0 | 15.0 | 0.00 | 0.00 | 0.00 | 78 | 1014.3 |
| 20260901063017 | 59 | 155 | 6.0 | 13.0 | 0.00 | 0.00 | 0.00 | 78 | 1014.3 |
| 20260901062516 | 59 | 162 | 8.0 | 12.0 | 0.00 | 0.00 | 0.00 | 78 | 1014.2 |
| 20260901062016 | 59 | 198 | 7.0 | 12.0 | 0.00 | 0.00 | 0.00 | 78 | 1014.2 |
| 20260901061515 | 60 | 161 | 7.0 | 15.0 | 0.00 | 0.00 | 0.00 | 78 | 1014.1 |
| 20260901061014 | 60 | 182 | 7.0 | 15.0 | 0.00 | 0.00 | 0.00 | 77 | 1014.1 |
| 20260901060513 | 60 | 168 | 9.0 | 14.0 | 0.00 | 0.00 | 0.00 | 77 | 1014.0 |
| 20260901060011 | 60 | 156 | 5.0 | 10.0 | 0.00 | 0.00 | 0.00 | 77 | 1014.1 |
| 20260901055514 | 60 | 153 | 4.0 | 10.0 | 0.00 | 0.00 | 0.00 | 76 | 1014.0 |
| 20260901055014 | 61 | 173 | 6.0 | 10.0 | 0.00 | 0.00 | 0.00 | 76 | 1014.0 |
| 20260901054513 | 61 | 149 | 5.0 | 8.0 | 0.00 | 0.00 | 0.00 | 76 | 1013.9 |
| 20260901054009 | 61 | 180 | 3.0 | 8.0 | 0.00 | 0.00 | 0.00 | 75 | 1013.9 |
| 20260901053509 | 61 | 150 | 3.0 | 11.0 | 0.00 | 0.00 | 0.00 | 75 | 1013.9 |
| 20260901053010 | 61 | 173 | 6.0 | 12.0 | 0.00 | 0.00 | 0.00 | 75 | 1014.0 |
| 20260901052508 | 61 | 160 | 2.0 | 9.0 | 0.00 | 0.00 | 0.00 | 75 | 1014.0 |
| 20260901052008 | 62 | 171 | 5.0 | 9.0 | 0.00 | 0.00 | 0.00 | 75 | 1014.0 |
| 20260901051508 | 62 | 164 | 3.0 | 8.0 | 0.00 | 0.00 | 0.00 | 74 | 1013.9 |
| 20260901051008 | 62 | 158 | 4.0 | 9.0 | 0.00 | 0.00 | 0.00 | 74 | 1013.9 |
| 20260901050508 | 62 | 144 | 4.0 | 11.0 | 0.00 | 0.00 | 0.00 | 73 | 1013.9 |
| 20260901050008 | 62 | 152 | 6.0 | 11.0 | 0.00 | 0.00 | 0.00 | 73 | 1013.9 |
| 20260901045506 | 62 | 159 | 6.0 | 12.0 | 0.00 | 0.00 | 0.00 | 73 | 1013.9 |
| 20260901045006 | 62 | 147 | 6.0 | 12.0 | 0.00 | 0.00 | 0.00 | 72 | 1013.8 |
| 20260901044507 | 63 | 159 | 3.0 | 12.0 | 0.00 | 0.00 | 0.00 | 72 | 1013.8 |
| 20260901044008 | 63 | 147 | 7.0 | 12.0 | 0.00 | 0.00 | 0.00 | 72 | 1013.6 |
| 20260901043508 | 63 | 161 | 6.0 | 10.0 | 0.00 | 0.00 | 0.00 | 71 | 1013.6 |
| 20260901043008 | 63 | 156 | 5.0 | 10.0 | 0.00 | 0.00 | 0.00 | 71 | 1013.6 |
| 20260901042505 | 64 | 189 | 4.0 | 13.0 | 0.00 | 0.00 | 0.00 | 71 | 1013.5 |
| 20260901042004 | 64 | 147 | 8.0 | 13.0 | 0.00 | 0.00 | 0.00 | 71 | 1013.5 |
| 20260901041504 | 64 | 157 | 6.0 | 8.0 | 0.00 | 0.00 | 0.00 | 70 | 1013.5 |
| 20260901041004 | 64 | 161 | 6.0 | 10.0 | 0.00 | 0.00 | 0.00 | 70 | 1013.5 |
| 20260901040504 | 64 | 183 | 6.0 | 11.0 | 0.00 | 0.00 | 0.00 | 69 | 1013.4 |
| 20260901040004 | 65 | 161 | 8.0 | 13.0 | 0.00 | 0.00 | 0.00 | 68 | 1013.3 |
| 20260901035503 | 65 | 164 | 5.0 | 13.0 | 0.00 | 0.00 | 0.00 | 67 | 1013.3 |
| 20260901035004 | 65 | 150 | 8.0 | 13.0 | 0.00 | 0.00 | 0.00 | 68 | 1013.2 |
| 20260901034502 | 65 | 360 | 4.0 | 9.0 | 0.00 | 0.00 | 0.00 | 67 | 1013.1 |
| 20260901034002 | 65 | 360 | 4.0 | 9.0 | 0.00 | 0.00 | 0.00 | 67 | 1013.1 |
| 20260901033502 | 66 | 360 | 5.0 | 10.0 | 0.00 | 0.00 | 0.00 | 66 | 1013.1 |
| 20260901033006 | 66 | 209 | 5.0 | 10.0 | 0.00 | 0.00 | 0.00 | 65 | 1013.0 |
| 20260901032502 | 66 | 176 | 5.0 | 11.0 | 0.00 | 0.00 | 0.00 | 65 | 1012.8 |
| 20260901032002 | 67 | 167 | 6.0 | 11.0 | 0.00 | 0.00 | 0.00 | 64 | 1012.8 |
| 20260901031502 | 67 | 189 | 6.0 | 11.0 | 0.00 | 0.00 | 0.00 | 64 | 1012.7 |
| 20260901031001 | 67 | 196 | 5.0 | 10.0 | 0.00 | 0.00 | 0.00 | 64 | 1012.5 |
| 20260901030501 | 67 | 189 | 6.0 | 10.0 | 0.00 | 0.00 | 0.00 | 63 | 1012.5 |
| 20260901030001 | 68 | 186 | 7.0 | 9.0 | 0.00 | 0.00 | 0.00 | 62 | 1012.4 |
| 20260901025502 | 68 | 202 | 6.0 | 8.0 | 0.00 | 0.00 | 0.00 | 62 | 1012.4 |
| 20260901025002 | 68 | 198 | 4.0 | 9.0 | 0.00 | 0.00 | 0.00 | 61 | 1012.2 |
| 20260901024702 | 69 | 192 | 5.0 | 12.0 | 0.00 | 0.00 | 0.00 | 61 | 1012.2 |
| 20260901024100 | 69 | 223 | 8.0 | 13.0 | 0.00 | 0.00 | 0.00 | 60 | 1012.2 |
| 20260901023603 | 70 | 198 | 8.0 | 14.0 | 0.00 | 0.00 | 0.00 | 59 | 1012.1 |
| 20260901023107 | 70 | 202 | 7.0 | 11.0 | 0.00 | 0.00 | 0.00 | 58 | 1012.2 |
| 20260901022600 | 70 | 236 | 7.0 | 12.0 | 0.00 | 0.00 | 0.00 | 57 | 1012.1 |
| 20260901022100 | 71 | 197 | 5.0 | 12.0 | 0.00 | 0.00 | 0.00 | 57 | 1012.1 |
| 20260901021600 | 71 | 227 | 5.0 | 10.0 | 0.00 | 0.00 | 0.00 | 56 | 1012.0 |
| 20260901021100 | 72 | 192 | 7.0 | 14.0 | 0.00 | 0.00 | 0.00 | 56 | 1012.0 |
| 20260901020600 | 72 | 213 | 5.0 | 14.0 | 0.00 | 0.00 | 0.00 | 56 | 1011.8 |
| 20260901020101 | 72 | 171 | 7.0 | 12.0 | 0.00 | 0.00 | 0.00 | 56 | 1011.7 |
| 20260901015558 | 72 | 194 | 7.0 | 12.0 | 0.00 | 0.00 | 0.00 | 56 | 1011.8 |
| 20260901015058 | 73 | 206 | 8.0 | 12.0 | 0.00 | 0.00 | 0.00 | 55 | 1011.7 |
| 20260901014600 | 73 | 200 | 5.0 | 12.0 | 0.00 | 0.00 | 0.00 | 55 | 1011.7 |
| 20260901014058 | 74 | 223 | 7.0 | 15.0 | 0.00 | 0.00 | 0.00 | 54 | 1011.7 |
| 20260901013558 | 74 | 185 | 8.0 | 13.0 | 0.00 | 0.00 | 0.00 | 54 | 1011.6 |
| 20260901013058 | 74 | 218 | 8.0 | 13.0 | 0.00 | 0.00 | 0.00 | 53 | 1011.6 |
| 20260901012600 | 75 | 179 | 7.0 | 15.0 | 0.00 | 0.00 | 0.00 | 53 | 1011.6 |
| 20260901012057 | 75 | 207 | 7.0 | 15.0 | 0.00 | 0.00 | 0.00 | 52 | 1011.7 |
| 20260901011556 | 75 | 187 | 6.0 | 12.0 | 0.00 | 0.00 | 0.00 | 53 | 1011.6 |
| 20260901011056 | 75 | 180 | 8.0 | 12.0 | 0.00 | 0.00 | 0.00 | 53 | 1011.5 |
| 20260901010558 | 76 | 187 | 9.0 | 15.0 | 0.00 | 0.00 | 0.00 | 51 | 1011.7 |
| 20260901010056 | 76 | 190 | 10.0 | 15.0 | 0.00 | 0.00 | 0.00 | 50 | 1011.7 |
| 20260901005556 | 77 | 191 | 7.0 | 11.0 | 0.00 | 0.00 | 0.00 | 49 | 1011.7 |
| 20260901005056 | 77 | 194 | 7.0 | 11.0 | 0.00 | 0.00 | 0.00 | 48 | 1011.8 |
| 20260901004559 | 77 | 169 | 7.0 | 13.0 | 0.00 | 0.00 | 0.00 | 48 | 1011.6 |
| 20260901004054 | 77 | 188 | 9.0 | 16.0 | 0.00 | 0.00 | 0.00 | 48 | 1011.7 |
| 20260901003555 | 77 | 207 | 11.0 | 16.0 | 0.00 | 0.00 | 0.00 | 47 | 1011.7 |
| 20260901003055 | 78 | 193 | 9.0 | 13.0 | 0.00 | 0.00 | 0.00 | 47 | 1011.7 |
| 20260901002554 | 78 | 215 | 8.0 | 12.0 | 0.00 | 0.00 | 0.00 | 46 | 1011.7 |
| 20260901002054 | 78 | 184 | 9.0 | 13.0 | 0.00 | 0.00 | 0.00 | 46 | 1011.8 |
| 20260901001555 | 78 | 186 | 8.0 | 13.0 | 0.00 | 0.00 | 0.00 | 46 | 1011.8 |
| 20260901001052 | 78 | 190 | 7.0 | 14.0 | 0.00 | 0.00 | 0.00 | 45 | 1011.6 |
| 20260901000552 | 78 | 167 | 7.0 | 14.0 | 0.00 | 0.00 | 0.00 | 45 | 1011.8 |
| 20260901000052 | 78 | 154 | 8.0 | 14.0 | 0.00 | 0.00 | 0.00 | 45 | 1011.9 |
| 20260831235552 | 78 | 196 | 9.0 | 14.0 | 0.00 | 0.00 | 0.00 | 45 | 1011.9 |
| 20260831235053 | 78 | 171 | 7.0 | 12.0 | 0.00 | 0.00 | 0.00 | 46 | 1012.0 |
| 20260831234551 | 78 | 169 | 7.0 | 12.0 | 0.00 | 0.00 | 0.00 | 46 | 1012.0 |
| 20260831234051 | 79 | 217 | 8.0 | 12.0 | 0.00 | 0.00 | 0.00 | 47 | 1012.0 |
| 20260831233550 | 78 | 157 | 6.0 | 14.0 | 0.00 | 0.00 | 0.00 | 45 | 1012.0 |
| 20260831233049 | 78 | 180 | 10.0 | 14.0 | 0.00 | 0.00 | 0.00 | 47 | 1012.0 |
| 20260831232549 | 78 | 190 | 8.0 | 13.0 | 0.00 | 0.00 | 0.00 | 46 | 1012.1 |
| 20260831232048 | 78 | 210 | 8.0 | 13.0 | 0.00 | 0.00 | 0.00 | 46 | 1012.1 |
| 20260831231548 | 78 | 188 | 9.0 | 13.0 | 0.00 | 0.00 | 0.00 | 47 | 1012.1 |
| 20260831231048 | 77 | 235 | 7.0 | 12.0 | 0.00 | 0.00 | 0.00 | 47 | 1012.2 |
| 20260831230547 | 78 | 182 | 6.0 | 12.0 | 0.00 | 0.00 | 0.00 | 47 | 1012.2 |
| 20260831230047 | 77 | 157 | 6.0 | 14.0 | 0.00 | 0.00 | 0.00 | 46 | 1012.3 |
| 20260831225546 | 77 | 234 | 7.0 | 14.0 | 0.00 | 0.00 | 0.00 | 49 | 1012.5 |
| 20260831225046 | 77 | 214 | 8.0 | 13.0 | 0.00 | 0.00 | 0.00 | 48 | 1012.4 |
| 20260831224546 | 77 | 360 | 9.0 | 13.0 | 0.00 | 0.00 | 0.00 | 47 | 1012.5 |
| 20260831224046 | 77 | 360 | 8.0 | 15.0 | 0.00 | 0.00 | 0.00 | 46 | 1012.5 |
| 20260831223545 | 77 | 360 | 8.0 | 15.0 | 0.00 | 0.00 | 0.00 | 47 | 1012.5 |
| 20260831223046 | 77 | 360 | 6.0 | 12.0 | 0.00 | 0.00 | 0.00 | 48 | 1012.6 |
| 20260831222543 | 77 | 360 | 7.0 | 11.0 | 0.00 | 0.00 | 0.00 | 48 | 1012.6 |
| 20260831222043 | 76 | 360 | 6.0 | 14.0 | 0.00 | 0.00 | 0.00 | 48 | 1012.6 |
| 20260831221554 | 76 | 360 | 8.0 | 14.0 | 0.00 | 0.00 | 0.00 | 48 | 1012.8 |
| 20260831221043 | 77 | 360 | 8.0 | 12.0 | 0.00 | 0.00 | 0.00 | 48 | 1012.6 |
| 20260831220543 | 77 | 360 | 8.0 | 13.0 | 0.00 | 0.00 | 0.00 | 48 | 1012.9 |
| 20260831220050 | 76 | 360 | 5.0 | 13.0 | 0.00 | 0.00 | 0.00 | 49 | 1012.9 |
| 20260831215543 | 76 | 190 | 8.0 | 13.0 | 0.00 | 0.00 | 0.00 | 49 | 1012.9 |
| 20260831215043 | 76 | 360 | 6.0 | 12.0 | 0.00 | 0.00 | 0.00 | 48 | 1012.9 |
| 20260831214541 | 76 | 360 | 7.0 | 13.0 | 0.00 | 0.00 | 0.00 | 49 | 1013.0 |
| 20260831214040 | 75 | 360 | 8.0 | 14.0 | 0.00 | 0.00 | 0.00 | 48 | 1013.0 |
| 20260831213540 | 75 | 360 | 9.0 | 16.0 | 0.00 | 0.00 | 0.00 | 48 | 1013.0 |
| 20260831213040 | 75 | 360 | 8.0 | 16.0 | 0.00 | 0.00 | 0.00 | 48 | 1013.1 |
| 20260831212540 | 75 | 360 | 9.0 | 14.0 | 0.00 | 0.00 | 0.00 | 48 | 1013.1 |
| 20260831212042 | 75 | 360 | 8.0 | 14.0 | 0.00 | 0.00 | 0.00 | 50 | 1013.1 |
| 20260831211540 | 75 | 360 | 6.0 | 11.0 | 0.00 | 0.00 | 0.00 | 49 | 1013.1 |
| 20260831211038 | 75 | 360 | 8.0 | 13.0 | 0.00 | 0.00 | 0.00 | 49 | 1013.2 |
| 20260831210540 | 75 | 360 | 10.0 | 13.0 | 0.00 | 0.00 | 0.00 | 49 | 1013.2 |
| 20260831210038 | 74 | 360 | 7.0 | 13.0 | 0.00 | 0.00 | 0.00 | 50 | 1013.2 |
| 20260831205538 | 74 | 360 | 7.0 | 13.0 | 0.00 | 0.00 | 0.00 | 50 | 1013.3 |
| 20260831205039 | 75 | 360 | 8.0 | 13.0 | 0.00 | 0.00 | 0.00 | 49 | 1013.2 |
| 20260831204543 | 74 | 360 | 4.0 | 13.0 | 0.00 | 0.00 | 0.00 | 52 | 1013.3 |
| 20260831204037 | 75 | 360 | 8.0 | 13.0 | 0.00 | 0.00 | 0.00 | 52 | 1013.3 |
| 20260831203537 | 75 | 360 | 8.0 | 12.0 | 0.00 | 0.00 | 0.00 | 50 | 1013.4 |
| 20260831203037 | 75 | 360 | 7.0 | 15.0 | 0.00 | 0.00 | 0.00 | 49 | 1013.3 |
| 20260831202535 | 74 | 360 | 7.0 | 15.0 | 0.00 | 0.00 | 0.00 | 51 | 1013.4 |
| 20260831202035 | 74 | 360 | 9.0 | 13.0 | 0.00 | 0.00 | 0.00 | 52 | 1013.4 |
| 20260831201535 | 74 | 360 | 8.0 | 13.0 | 0.00 | 0.00 | 0.00 | 51 | 1013.3 |
| 20260831201039 | 74 | 360 | 8.0 | 12.0 | 0.00 | 0.00 | 0.00 | 53 | 1013.4 |
| 20260831200532 | 74 | 360 | 7.0 | 15.0 | 0.00 | 0.00 | 0.00 | 54 | 1013.4 |
| 20260831200042 | 73 | 360 | 8.0 | 16.0 | 0.00 | 0.00 | 0.00 | 53 | 1013.4 |
| 20260831195533 | 73 | 360 | 9.0 | 16.0 | 0.00 | 0.00 | 0.00 | 52 | 1013.4 |
| 20260831195032 | 73 | 360 | 7.0 | 15.0 | 0.00 | 0.00 | 0.00 | 54 | 1013.5 |
| 20260831194532 | 74 | 360 | 9.0 | 13.0 | 0.00 | 0.00 | 0.00 | 52 | 1013.5 |
| 20260831194032 | 73 | 360 | 8.0 | 12.0 | 0.00 | 0.00 | 0.00 | 53 | 1013.7 |
| 20260831193533 | 74 | 360 | 6.0 | 13.0 | 0.00 | 0.00 | 0.00 | 53 | 1013.6 |
| 20260831193037 | 74 | 360 | 7.0 | 13.0 | 0.00 | 0.00 | 0.00 | 53 | 1013.6 |
| 20260831192530 | 74 | 360 | 6.0 | 13.0 | 0.00 | 0.00 | 0.00 | 52 | 1013.7 |
| 20260831192033 | 74 | 167 | 6.0 | 16.0 | 0.00 | 0.00 | 0.00 | 53 | 1013.8 |
| 20260831191534 | 73 | 204 | 7.0 | 16.0 | 0.00 | 0.00 | 0.00 | 55 | 1013.7 |
| 20260831191028 | 72 | 360 | 6.0 | 16.0 | 0.00 | 0.00 | 0.00 | 54 | 1013.7 |
| 20260831190528 | 73 | 360 | 9.0 | 16.0 | 0.00 | 0.00 | 0.00 | 55 | 1013.8 |
| 20260831190028 | 73 | 360 | 5.0 | 11.0 | 0.00 | 0.00 | 0.00 | 54 | 1013.7 |
| 20260831185526 | 73 | 360 | 6.0 | 12.0 | 0.00 | 0.00 | 0.00 | 55 | 1013.7 |
| 20260831185025 | 72 | 360 | 8.0 | 12.0 | 0.00 | 0.00 | 0.00 | 55 | 1013.7 |
| 20260831184527 | 72 | 360 | 6.0 | 11.0 | 0.00 | 0.00 | 0.00 | 54 | 1013.7 |
| 20260831184025 | 72 | 360 | 7.0 | 13.0 | 0.00 | 0.00 | 0.00 | 55 | 1013.7 |
| 20260831183525 | 72 | 360 | 7.0 | 13.0 | 0.00 | 0.00 | 0.00 | 54 | 1013.7 |
| 20260831183025 | 72 | 360 | 6.0 | 11.0 | 0.00 | 0.00 | 0.00 | 55 | 1013.7 |
| 20260831182525 | 72 | 360 | 7.0 | 13.0 | 0.00 | 0.00 | 0.00 | 55 | 1013.7 |
| 20260831182025 | 71 | 360 | 8.0 | 13.0 | 0.00 | 0.00 | 0.00 | 55 | 1013.7 |
| 20260831181526 | 71 | 360 | 8.0 | 13.0 | 0.00 | 0.00 | 0.00 | 57 | 1013.7 |
| 20260831181025 | 71 | 360 | 7.0 | 10.0 | 0.00 | 0.00 | 0.00 | 56 | 1013.7 |
| 20260831180523 | 70 | 360 | 7.0 | 10.0 | 0.00 | 0.00 | 0.00 | 58 | 1013.7 |
| 20260831180038 | 70 | 360 | 7.0 | 11.0 | 0.00 | 0.00 | 0.00 | 58 | 1013.7 |
| 20260831175523 | 70 | 202 | 7.0 | 11.0 | 0.00 | 0.00 | 0.00 | 57 | 1013.6 |
| 20260831175023 | 69 | 360 | 5.0 | 11.0 | 0.00 | 0.00 | 0.00 | 59 | 1013.7 |
| 20260831174524 | 69 | 360 | 7.0 | 11.0 | 0.00 | 0.00 | 0.00 | 60 | 1013.6 |
| 20260831174025 | 69 | 360 | 6.0 | 10.0 | 0.00 | 0.00 | 0.00 | 61 | 1013.6 |
| 20260831173621 | 69 | 360 | 4.0 | 11.0 | 0.00 | 0.00 | 0.00 | 61 | 1013.5 |
| 20260831173020 | 68 | 360 | 8.0 | 13.0 | 0.00 | 0.00 | 0.00 | 61 | 1013.5 |
| 20260831172519 | 68 | 360 | 7.0 | 10.0 | 0.00 | 0.00 | 0.00 | 62 | 1013.6 |
| 20260831172019 | 68 | 360 | 6.0 | 10.0 | 0.00 | 0.00 | 0.00 | 62 | 1013.6 |
| 20260831171520 | 68 | 360 | 4.0 | 9.0 | 0.00 | 0.00 | 0.00 | 63 | 1013.6 |
| 20260831171019 | 67 | 360 | 6.0 | 10.0 | 0.00 | 0.00 | 0.00 | 63 | 1013.6 |
| 20260831170519 | 67 | 360 | 6.0 | 10.0 | 0.00 | 0.00 | 0.00 | 63 | 1013.5 |
| 20260831170019 | 67 | 360 | 5.0 | 11.0 | 0.00 | 0.00 | 0.00 | 63 | 1013.6 |
| 20260831165519 | 66 | 360 | 7.0 | 11.0 | 0.00 | 0.00 | 0.00 | 63 | 1013.6 |
| 20260831165018 | 66 | 360 | 6.0 | 10.0 | 0.00 | 0.00 | 0.00 | 64 | 1013.5 |
| 20260831164535 | 66 | 360 | 7.0 | 9.0 | 0.00 | 0.00 | 0.00 | 64 | 1013.5 |
| 20260831164018 | 66 | 360 | 6.0 | 11.0 | 0.00 | 0.00 | 0.00 | 64 | 1013.6 |
| 20260831163520 | 66 | 208 | 5.0 | 11.0 | 0.00 | 0.00 | 0.00 | 65 | 1013.5 |
| 20260831163020 | 65 | 360 | 6.0 | 10.0 | 0.00 | 0.00 | 0.00 | 66 | 1013.5 |
| 20260831162517 | 65 | 204 | 6.0 | 10.0 | 0.00 | 0.00 | 0.00 | 66 | 1013.6 |
| 20260831162017 | 64 | 195 | 7.0 | 11.0 | 0.00 | 0.00 | 0.00 | 66 | 1013.5 |
| 20260831161516 | 65 | 218 | 7.0 | 11.0 | 0.00 | 0.00 | 0.00 | 65 | 1013.5 |
| 20260831161016 | 65 | 360 | 7.0 | 11.0 | 0.00 | 0.00 | 0.00 | 65 | 1013.5 |
| 20260831160515 | 65 | 360 | 5.0 | 10.0 | 0.00 | 0.00 | 0.00 | 66 | 1013.6 |
| 20260831160015 | 64 | 360 | 5.0 | 10.0 | 0.00 | 0.00 | 0.00 | 66 | 1013.7 |
| 20260831155515 | 64 | 360 | 6.0 | 10.0 | 0.00 | 0.00 | 0.00 | 66 | 1013.6 |
| 20260831155015 | 64 | 360 | 6.0 | 10.0 | 0.00 | 0.00 | 0.00 | 66 | 1013.6 |
| 20260831154514 | 64 | 360 | 5.0 | 10.0 | 0.00 | 0.00 | 0.00 | 66 | 1013.6 |
| 20260831154015 | 64 | 360 | 4.0 | 9.0 | 0.00 | 0.00 | 0.00 | 67 | 1013.5 |
| 20260831153512 | 63 | 360 | 5.0 | 9.0 | 0.00 | 0.00 | 0.00 | 67 | 1013.5 |
| 20260831153012 | 63 | 360 | 6.0 | 11.0 | 0.00 | 0.00 | 0.00 | 67 | 1013.5 |
| 20260831152515 | 63 | 360 | 7.0 | 12.0 | 0.00 | 0.00 | 0.00 | 67 | 1013.5 |
| 20260831152012 | 63 | 360 | 7.0 | 12.0 | 0.00 | 0.00 | 0.00 | 67 | 1013.4 |
| 20260831151513 | 63 | 360 | 5.0 | 10.0 | 0.00 | 0.00 | 0.00 | 68 | 1013.5 |
| 20260831151012 | 62 | 166 | 4.0 | 10.0 | 0.00 | 0.00 | 0.00 | 68 | 1013.4 |
| 20260831150510 | 62 | 169 | 6.0 | 10.0 | 0.00 | 0.00 | 0.00 | 68 | 1013.3 |
| 20260831150012 | 62 | 186 | 5.0 | 11.0 | 0.00 | 0.00 | 0.00 | 68 | 1013.3 |
| 20260831145511 | 62 | 159 | 5.0 | 11.0 | 0.00 | 0.00 | 0.00 | 68 | 1013.3 |
| 20260831145009 | 62 | 150 | 7.0 | 11.0 | 0.00 | 0.00 | 0.00 | 68 | 1013.2 |
| 20260831144514 | 61 | 168 | 5.0 | 9.0 | 0.00 | 0.00 | 0.00 | 68 | 1013.2 |
| 20260831144007 | 61 | 156 | 6.0 | 9.0 | 0.00 | 0.00 | 0.00 | 68 | 1013.0 |
| 20260831143507 | 61 | 152 | 5.0 | 8.0 | 0.00 | 0.00 | 0.00 | 68 | 1013.1 |
| 20260831143017 | 61 | 148 | 3.0 | 7.0 | 0.00 | 0.00 | 0.00 | 68 | 1013.0 |
| 20260831142506 | 60 | 151 | 3.0 | 5.0 | 0.00 | 0.00 | 0.00 | 69 | 1013.0 |
| 20260831142006 | 60 | 165 | 1.0 | 6.0 | 0.00 | 0.00 | 0.00 | 69 | 1013.0 |
| 20260831141504 | 61 | 164 | 2.0 | 12.0 | 0.00 | 0.00 | 0.00 | 68 | 1013.0 |
| 20260831141003 | 61 | 164 | 5.0 | 12.0 | 0.00 | 0.00 | 0.00 | 68 | 1012.9 |
| 20260831140502 | 61 | 156 | 8.0 | 12.0 | 0.00 | 0.00 | 0.00 | 66 | 1012.9 |
| 20260831140001 | 61 | 151 | 6.0 | 10.0 | 0.00 | 0.00 | 0.00 | 65 | 1012.8 |
| 20260831135600 | 61 | 132 | 6.0 | 8.0 | 0.00 | 0.00 | 0.00 | 65 | 1012.8 |
| 20260831135058 | 61 | 135 | 5.0 | 9.0 | 0.00 | 0.00 | 0.00 | 64 | 1012.8 |
| 20260831134558 | 61 | 134 | 5.0 | 9.0 | 0.00 | 0.00 | 0.00 | 64 | 1012.7 |
| 20260831134057 | 61 | 154 | 5.0 | 9.0 | 0.00 | 0.00 | 0.00 | 64 | 1012.6 |
| 20260831133557 | 61 | 150 | 4.0 | 7.0 | 0.00 | 0.00 | 0.00 | 64 | 1012.7 |
| 20260831133056 | 61 | 144 | 4.0 | 7.0 | 0.00 | 0.00 | 0.00 | 63 | 1012.6 |
| 20260831132555 | 62 | 144 | 4.0 | 7.0 | 0.00 | 0.00 | 0.00 | 63 | 1012.5 |
| 20260831132055 | 62 | 150 | 5.0 | 7.0 | 0.00 | 0.00 | 0.00 | 63 | 1012.4 |
| 20260831131556 | 62 | 157 | 5.0 | 8.0 | 0.00 | 0.00 | 0.00 | 62 | 1012.4 |
| 20260831131052 | 62 | 173 | 5.0 | 8.0 | 0.00 | 0.00 | 0.00 | 61 | 1012.2 |
| 20260831130551 | 62 | 156 | 5.0 | 8.0 | 0.00 | 0.00 | 0.00 | 61 | 1012.0 |
| 20260831130050 | 62 | 154 | 2.0 | 6.0 | 0.00 | 0.00 | 0.00 | 61 | 1012.0 |
| 20260831125550 | 62 | 153 | 2.0 | 6.0 | 0.00 | 0.00 | 0.00 | 60 | 1012.0 |
| 20260831125052 | 62 | 155 | 4.0 | 6.0 | 0.00 | 0.00 | 0.00 | 60 | 1012.0 |
| 20260831124552 | 62 | 154 | 3.0 | 5.0 | 0.00 | 0.00 | 0.00 | 60 | 1011.9 |
| 20260831124048 | 63 | 160 | 3.0 | 6.0 | 0.00 | 0.00 | 0.00 | 59 | 1011.9 |
| 20260831123547 | 63 | 153 | 3.0 | 6.0 | 0.00 | 0.00 | 0.00 | 59 | 1011.8 |
| 20260831123047 | 63 | 163 | 1.0 | 5.0 | 0.00 | 0.00 | 0.00 | 59 | 1011.8 |
| 20260831122545 | 63 | 169 | 1.0 | 5.0 | 0.00 | 0.00 | 0.00 | 58 | 1011.7 |
| 20260831122045 | 63 | 173 | 1.0 | 4.0 | 0.00 | 0.00 | 0.00 | 58 | 1011.7 |
| 20260831121544 | 64 | 132 | 0.0 | 2.0 | 0.00 | 0.00 | 0.00 | 57 | 1011.7 |
| 20260831121043 | 64 | 132 | 0.0 | 0.0 | 0.00 | 0.00 | 0.00 | 56 | 1011.7 |
| 20260831120541 | 65 | 132 | 0.0 | 0.0 | 0.00 | 0.00 | 0.00 | 56 | 1011.6 |
| 20260831120042 | 66 | 132 | 0.0 | 2.0 | 0.00 | 0.00 | 0.00 | 55 | 1011.6 |
| 20260831115538 | 67 | 360 | 1.0 | 4.0 | 0.00 | 0.00 | 0.00 | 53 | 1011.6 |
| 20260831115140 | 68 | 360 | 1.0 | 5.0 | 0.00 | 0.00 | 0.00 | 52 | 1011.5 |
| 20260831114537 | 68 | 360 | 3.0 | 6.0 | 0.00 | 0.00 | 0.00 | 51 | 1011.4 |
| 20260831114036 | 68 | 360 | 3.0 | 6.0 | 0.00 | 0.00 | 0.00 | 51 | 1011.4 |
| 20260831113536 | 68 | 360 | 3.0 | 5.0 | 0.00 | 0.00 | 0.00 | 52 | 1011.4 |
| 20260831113036 | 68 | 360 | 3.0 | 5.0 | 0.00 | 0.00 | 0.00 | 52 | 1011.4 |
| 20260831112538 | 68 | 360 | 2.0 | 5.0 | 0.00 | 0.00 | 0.00 | 52 | 1011.5 |
| 20260831112034 | 68 | 360 | 1.0 | 4.0 | 0.00 | 0.00 | 0.00 | 52 | 1011.5 |
| 20260831111546 | 68 | 360 | 1.0 | 4.0 | 0.00 | 0.00 | 0.00 | 51 | 1011.5 |
| 20260831111034 | 68 | 360 | 1.0 | 3.0 | 0.00 | 0.00 | 0.00 | 51 | 1011.7 |
| 20260831110535 | 68 | 360 | 1.0 | 2.0 | 0.00 | 0.00 | 0.00 | 50 | 1011.7 |
| 20260831110035 | 68 | 103 | 1.0 | 5.0 | 0.00 | 0.00 | 0.00 | 50 | 1011.8 |
| 20260831105533 | 69 | 360 | 2.0 | 6.0 | 0.00 | 0.00 | 0.00 | 49 | 1011.8 |
| 20260831105031 | 69 | 360 | 3.0 | 6.0 | 0.00 | 0.00 | 0.00 | 49 | 1011.7 |
| 20260831104546 | 69 | 360 | 3.0 | 6.0 | 0.00 | 0.00 | 0.00 | 49 | 1011.6 |
| 20260831104030 | 69 | 360 | 2.0 | 5.0 | 0.00 | 0.00 | 0.00 | 48 | 1011.5 |
| 20260831103529 | 69 | 94 | 2.0 | 5.0 | 0.00 | 0.00 | 0.00 | 48 | 1011.6 |
| 20260831103030 | 69 | 108 | 1.0 | 5.0 | 0.00 | 0.00 | 0.00 | 48 | 1011.7 |
| 20260831102529 | 69 | 360 | 1.0 | 5.0 | 0.00 | 0.00 | 0.00 | 48 | 1011.5 |
| 20260831102028 | 69 | 99 | 2.0 | 5.0 | 0.00 | 0.00 | 0.00 | 48 | 1011.5 |
| 20260831101533 | 69 | 101 | 2.0 | 5.0 | 0.00 | 0.00 | 0.00 | 48 | 1011.6 |
| 20260831101028 | 69 | 94 | 1.0 | 5.0 | 0.00 | 0.00 | 0.00 | 49 | 1011.7 |
| 20260831100528 | 69 | 360 | 2.0 | 5.0 | 0.00 | 0.00 | 0.00 | 49 | 1011.6 |
| 20260831100026 | 69 | 360 | 2.0 | 4.0 | 0.00 | 0.00 | 0.00 | 49 | 1011.7 |
| 20260831095526 | 69 | 360 | 1.0 | 4.0 | 0.00 | 0.00 | 0.00 | 49 | 1011.7 |
| 20260831095028 | 69 | 102 | 1.0 | 6.0 | 0.00 | 0.00 | 0.00 | 49 | 1011.6 |
| 20260831094529 | 69 | 360 | 3.0 | 6.0 | 0.00 | 0.00 | 0.00 | 49 | 1011.6 |
| 20260831094025 | 70 | 360 | 4.0 | 6.0 | 0.00 | 0.00 | 0.00 | 49 | 1011.6 |
| 20260831093524 | 70 | 360 | 2.0 | 5.0 | 0.00 | 0.00 | 0.00 | 49 | 1011.7 |
| 20260831093036 | 70 | 74 | 1.0 | 5.0 | 0.00 | 0.00 | 0.00 | 48 | 1011.7 |
| 20260831092522 | 70 | 57 | 1.0 | 5.0 | 0.00 | 0.00 | 0.00 | 48 | 1011.7 |
| 20260831092021 | 70 | 96 | 1.0 | 3.0 | 0.00 | 0.00 | 0.00 | 49 | 1011.7 |
| 20260831091522 | 70 | 107 | 1.0 | 5.0 | 0.00 | 0.00 | 0.00 | 49 | 1011.7 |
| 20260831091023 | 70 | 103 | 2.0 | 6.0 | 0.00 | 0.00 | 0.00 | 49 | 1011.7 |
| 20260831090521 | 70 | 94 | 3.0 | 6.0 | 0.00 | 0.00 | 0.00 | 49 | 1011.8 |
| 20260831090023 | 70 | 98 | 3.0 | 5.0 | 0.00 | 0.00 | 0.00 | 48 | 1011.8 |
| 20260831085521 | 70 | 101 | 2.0 | 7.0 | 0.00 | 0.00 | 0.00 | 48 | 1011.8 |
| 20260831085123 | 70 | 95 | 3.0 | 7.0 | 0.00 | 0.00 | 0.00 | 48 | 1011.8 |
| 20260831084522 | 70 | 108 | 2.0 | 5.0 | 0.00 | 0.00 | 0.00 | 47 | 1011.8 |
| 20260831084018 | 70 | 99 | 3.0 | 6.0 | 0.00 | 0.00 | 0.00 | 47 | 1011.8 |
| 20260831083517 | 70 | 106 | 3.0 | 6.0 | 0.00 | 0.00 | 0.00 | 47 | 1011.8 |
| 20260831083017 | 70 | 102 | 2.0 | 5.0 | 0.00 | 0.00 | 0.00 | 47 | 1011.8 |
| 20260831082518 | 70 | 104 | 2.0 | 5.0 | 0.00 | 0.00 | 0.00 | 47 | 1011.9 |
| 20260831082018 | 71 | 102 | 1.0 | 7.0 | 0.00 | 0.00 | 0.00 | 47 | 1011.8 |
| 20260831081516 | 71 | 102 | 2.0 | 7.0 | 0.00 | 0.00 | 0.00 | 47 | 1012.0 |
| 20260831081016 | 71 | 81 | 2.0 | 5.0 | 0.00 | 0.00 | 0.00 | 48 | 1011.9 |
| 20260831080514 | 71 | 95 | 2.0 | 6.0 | 0.00 | 0.00 | 0.00 | 48 | 1011.9 |
| 20260831080018 | 71 | 105 | 2.0 | 6.0 | 0.00 | 0.00 | 0.00 | 48 | 1011.9 |
| 20260831075513 | 71 | 90 | 2.0 | 5.0 | 0.00 | 0.00 | 0.00 | 47 | 1012.0 |
| 20260831075013 | 71 | 101 | 2.0 | 4.0 | 0.00 | 0.00 | 0.00 | 47 | 1012.0 |
| 20260831074512 | 71 | 96 | 1.0 | 3.0 | 0.00 | 0.00 | 0.00 | 47 | 1011.9 |
| 20260831074011 | 71 | 96 | 1.0 | 3.0 | 0.00 | 0.00 | 0.00 | 46 | 1012.0 |
| 20260831073511 | 72 | 96 | 1.0 | 2.0 | 0.00 | 0.00 | 0.00 | 46 | 1011.9 |
| 20260831073013 | 72 | 96 | 0.0 | 2.0 | 0.00 | 0.00 | 0.00 | 45 | 1012.0 |
| 20260831072510 | 72 | 96 | 0.0 | 2.0 | 0.00 | 0.00 | 0.00 | 44 | 1012.0 |